THOR BURNER 2 R/B, 3522

Orbit data source: Space-Track

THOR BURNER 2 R/B, 3522 is space debris in SSO originally from a launch on Wed, 23 Oct 1968 UTC launched from the Air Force Western Test Range (AFWTR). Debris objects in space refer to the collection of defunct objects orbiting the Earth. Examples of debris include non-operational satellites, rocket bodies, and fragments generated from explosions, collisions, or faulty payload assembly.

Loading next visibility...
Identifier
3522, 1968-092B
Orbit
SSO
Country
Flag of USUS
Related business
Manufacturer
Thiokol/TE
Mission
Spacecraft
Bus & Motor
STAR 37, Unknown motor
Mass
154 kg wet, 154 kg dry
Launch date (UTC)
1968-10-23 (58 years ago)
Launch vehicle
Unknown
Launch site
Air Force Western Test Range (AFWTR)
Object type
Payload
Rocket body
Debris
Shape & HBR
Unknown
Radar Cross Section
Large (>1 m²)

Expand to show TLE details & history
Last TLE update: 4 hours ago

TLE from 4 hours ago
0 THOR BURNER 2 R/B
1  3522U 68092B   26127.83786851  .00000152  00000-0  74889-4 0  9999
2  3522  98.8121 279.0710 0027743 285.9621  73.8505 14.31020153994500
Epoch: 2026-05-07T20:06Z
TLE epoch observation values (Epoch: 2026-05-07T20:06:31.839Z)
Latitude
-0.00003°
Longitude
111.76007°
Altitude
785.769 km
Speed
7.464 km/s
True Right ascension
18h 36m 17s
True Declination
0° 00' 00"
Sunlit
Object was in full shadow at epoch
Visualization orbit readout
Latitude
Unknown
Longitude
Unknown
Altitude
Unknown
Speed
Unknown
Apparent Right ascension
Unknown
Apparent Declination
Unknown
Sunlit
N/A
Visualization observer readout
Local Sidereal Time
08:11:06
Azimuth
Unknown
Elevation
Unknown
Doppler factor
Unknown
Orbital elements
Apogee altitude
805.346 km
Perigee altitude
765.598 km
Semi-major axis
7,163.609 km
Eccentricity
0.00277
Inclination
98.8121°
RAAN
279.071°
Arg. of periapsis
285.9621°
True anomaly
74.15616°
Mean anomaly
73.8505°
Eccentric anomaly
74.0033°
Mean motion
3.57969 °/min
Orbital period
100.57 mins
BSTAR
0.000074889
Loading maneuver chart data...
Computing Atmospheric mass density...
Loading historical data...
Loading historical data...
Loading historical data...
Loading historical data...
Loading historical data...
Loading historical data...
Loading historical data...
Other satellites on launch #92 in the year 1968 (1968-10-23 UTC)

Documentation

Showing up to 5 results
|